ENY4103 KIAH-KDFW

Flight info

Callsign ENY4103
Flight time 0h 42m
Altitude 32000
Route BLTWY7 CRIED BEREE3
Aircraft E75L/M-SDE3GILORVW/S

Departure

Time 2026-05-05 20:46
Airport George Bush Intercontinental Airport (KIAH)

Arrival

Time 2026-05-05 21:28
Airport Dallas Fort Worth International Airport (KDFW)
Time Latitude Longitude Altitude Speed Heading
2026-05-05 20:18 29.98502 -95.34433 104 ft 0 kts 43°
2026-05-05 20:34 29.98496 -95.34438 109 ft 2 kts 43°
2026-05-05 20:34 29.98482 -95.34454 105 ft 2 kts 43°
2026-05-05 20:34 29.98474 -95.34464 105 ft 3 kts 70°
2026-05-05 20:35 29.98476 -95.34469 104 ft 3 kts 166°
2026-05-05 20:35 29.98489 -95.34471 106 ft 1 kts 180°
2026-05-05 20:35 29.98505 -95.34471 104 ft 2 kts 180°
2026-05-05 20:35 29.98510 -95.34471 104 ft 1 kts 180°
2026-05-05 20:37 29.98509 -95.34471 104 ft 0 kts 180°
2026-05-05 20:37 29.98508 -95.34471 104 ft 1 kts 180°
2026-05-05 20:38 29.98480 -95.34471 105 ft 8 kts 180°
2026-05-05 20:38 29.98447 -95.34471 105 ft 7 kts 179°
2026-05-05 20:38 29.98370 -95.34486 105 ft 16 kts 217°
2026-05-05 20:38 29.98324 -95.34631 105 ft 24 kts 271°
2026-05-05 20:39 29.98326 -95.34835 107 ft 23 kts 268°
2026-05-05 20:39 29.98323 -95.35035 106 ft 17 kts 270°
2026-05-05 20:39 29.98323 -95.35061 105 ft 0 kts 271°
2026-05-05 20:40 29.98323 -95.35062 105 ft 1 kts 271°
2026-05-05 20:40 29.98324 -95.35109 105 ft 11 kts 272°
2026-05-05 20:40 29.98378 -95.35197 104 ft 19 kts 330°
2026-05-05 20:40 29.98521 -95.35287 105 ft 28 kts 330°
2026-05-05 20:41 29.98714 -95.35405 106 ft 34 kts 332°
2026-05-05 20:41 29.98931 -95.35538 105 ft 37 kts 331°
2026-05-05 20:41 29.99091 -95.35710 105 ft 29 kts 268°
2026-05-05 20:41 29.99075 -95.35961 105 ft 31 kts 245°
2026-05-05 20:42 29.98968 -95.36024 105 ft 21 kts 155°
2026-05-05 20:42 29.98857 -95.35962 104 ft 11 kts 180°
2026-05-05 20:42 29.98838 -95.35962 108 ft 3 kts 161°
2026-05-05 20:42 29.98790 -95.35931 106 ft 13 kts 151°
2026-05-05 20:43 29.98706 -95.35923 108 ft 11 kts 225°
2026-05-05 20:43 29.98682 -95.35967 105 ft 0 kts 244°
2026-05-05 20:44 29.98668 -95.35996 106 ft 7 kts 234°
2026-05-05 20:44 29.98608 -95.36026 107 ft 10 kts 169°
2026-05-05 20:44 29.98577 -95.36014 107 ft 0 kts 154°
2026-05-05 20:45 29.98476 -95.35955 106 ft 43 kts 153°
2026-05-05 20:45 29.97970 -95.35649 103 ft 119 kts 151°
2026-05-05 20:45 29.97084 -95.35094 379 ft 164 kts 152°
2026-05-05 20:46 29.96003 -95.34610 965 ft 156 kts 173°
2026-05-05 20:46 29.95011 -95.34879 914 ft 148 kts 216°
2026-05-05 20:46 29.94444 -95.36024 1299 ft 191 kts 259°
2026-05-05 20:46 29.94693 -95.37715 2026 ft 241 kts 288°
2026-05-05 20:47 29.95845 -95.39366 2972 ft 289 kts 315°
2026-05-05 20:47 29.97654 -95.40771 3267 ft 312 kts 333°
2026-05-05 20:47 29.99634 -95.41315 3075 ft 285 kts 358°
2026-05-05 20:47 30.01645 -95.41219 3181 ft 291 kts
2026-05-05 20:48 30.03601 -95.41224 3463 ft 282 kts 356°
2026-05-05 20:48 30.05594 -95.41321 4247 ft 301 kts 357°
2026-05-05 20:48 30.07829 -95.41276 4597 ft 336 kts
2026-05-05 20:48 30.10156 -95.41126 5583 ft 329 kts
2026-05-05 20:49 30.12405 -95.40953 6892 ft 318 kts
2026-05-05 20:49 30.14561 -95.40769 8286 ft 304 kts
2026-05-05 20:49 30.16683 -95.40571 9156 ft 311 kts
2026-05-05 20:49 30.18824 -95.40350 10095 ft 310 kts
2026-05-05 20:50 30.21029 -95.40159 10537 ft 323 kts 355°
2026-05-05 20:50 30.23266 -95.40557 11064 ft 328 kts 343°
2026-05-05 20:50 30.25478 -95.41192 11888 ft 328 kts 341°
2026-05-05 20:50 30.27714 -95.41791 12684 ft 332 kts 343°
2026-05-05 20:51 30.29961 -95.42300 13507 ft 335 kts 343°
2026-05-05 20:51 30.32255 -95.42813 14278 ft 338 kts 343°
2026-05-05 20:51 30.34575 -95.43331 15003 ft 341 kts 343°
2026-05-05 20:51 30.36917 -95.43850 15679 ft 344 kts 342°
2026-05-05 20:52 30.39234 -95.44364 15825 ft 340 kts 342°
2026-05-05 20:52 30.41583 -95.44889 15921 ft 346 kts 342°
2026-05-05 20:52 30.43956 -95.45414 16093 ft 349 kts 342°
2026-05-05 20:52 30.46334 -95.45941 16949 ft 349 kts 342°
2026-05-05 20:53 30.48733 -95.46476 17649 ft 353 kts 342°
2026-05-05 20:53 30.51155 -95.47016 18330 ft 356 kts 341°
2026-05-05 20:53 30.53597 -95.47558 18958 ft 358 kts 341°
2026-05-05 20:53 30.56049 -95.48104 19591 ft 360 kts 341°
2026-05-05 20:54 30.58509 -95.48649 20253 ft 361 kts 340°
2026-05-05 20:54 30.60935 -95.49193 20901 ft 363 kts 340°
2026-05-05 20:54 30.63419 -95.49763 21553 ft 365 kts 339°
2026-05-05 20:54 30.65921 -95.50328 22188 ft 367 kts 339°
2026-05-05 20:55 30.68435 -95.50894 22793 ft 370 kts 339°
2026-05-05 20:55 30.70970 -95.51463 23415 ft 372 kts 339°
2026-05-05 20:55 30.73518 -95.52040 23880 ft 375 kts 339°
2026-05-05 20:55 30.76087 -95.52622 24360 ft 377 kts 339°
2026-05-05 20:56 30.78670 -95.53207 24837 ft 379 kts 338°
2026-05-05 20:56 30.81272 -95.53797 25305 ft 383 kts 338°
2026-05-05 20:56 30.83895 -95.54392 25755 ft 386 kts 338°
2026-05-05 20:56 30.86541 -95.54989 26228 ft 388 kts 338°
2026-05-05 20:57 30.89197 -95.55595 26640 ft 390 kts 338°
2026-05-05 20:57 30.91832 -95.56193 27049 ft 393 kts 338°
2026-05-05 20:57 30.94524 -95.56805 27459 ft 396 kts 338°
2026-05-05 20:57 30.97234 -95.57422 27865 ft 398 kts 338°
2026-05-05 20:58 30.99962 -95.58043 28239 ft 401 kts 338°
2026-05-05 20:58 31.02705 -95.58667 28612 ft 403 kts 338°
2026-05-05 20:58 31.05470 -95.59298 28976 ft 406 kts 338°
2026-05-05 20:58 31.08251 -95.59932 29332 ft 408 kts 337°
2026-05-05 20:59 31.11044 -95.60568 29673 ft 411 kts 337°
2026-05-05 20:59 31.13867 -95.61215 29881 ft 417 kts 337°
2026-05-05 20:59 31.16732 -95.61867 30097 ft 420 kts 337°
2026-05-05 20:59 31.19604 -95.62521 30424 ft 420 kts 337°
2026-05-05 21:00 31.22472 -95.63179 30732 ft 420 kts 337°
2026-05-05 21:00 31.25305 -95.63828 31047 ft 420 kts 337°
2026-05-05 21:00 31.28177 -95.64486 31357 ft 421 kts 337°
2026-05-05 21:00 31.31046 -95.65144 31665 ft 420 kts 336°
2026-05-05 21:01 31.33814 -95.66045 31821 ft 407 kts 328°
2026-05-05 21:01 31.36428 -95.67316 31815 ft 406 kts 324°
2026-05-05 21:01 31.41322 -95.70375 31831 ft 394 kts 318°
2026-05-05 21:02 31.46020 -95.73704 31806 ft 395 kts 317°
2026-05-05 21:02 31.50675 -95.77028 31813 ft 395 kts 317°
2026-05-05 21:03 31.55364 -95.80380 31799 ft 395 kts 317°
2026-05-05 21:03 31.60050 -95.83733 31808 ft 395 kts 317°
2026-05-05 21:04 31.64738 -95.87090 31797 ft 395 kts 317°
2026-05-05 21:04 31.69412 -95.90442 31802 ft 393 kts 317°
2026-05-05 21:05 31.74077 -95.93792 31791 ft 393 kts 317°
2026-05-05 21:05 31.78742 -95.97144 31794 ft 393 kts 317°
2026-05-05 21:06 31.83357 -96.00464 31795 ft 393 kts 317°
2026-05-05 21:06 31.85680 -96.02141 31123 ft 392 kts 317°
2026-05-05 21:06 31.88013 -96.03830 30139 ft 396 kts 317°
2026-05-05 21:07 31.90372 -96.05532 29137 ft 397 kts 318°
2026-05-05 21:07 31.92716 -96.07221 28344 ft 392 kts 318°
2026-05-05 21:07 31.95022 -96.08888 27627 ft 387 kts 318°
2026-05-05 21:07 31.97304 -96.10550 26821 ft 384 kts 318°
2026-05-05 21:08 31.99569 -96.12182 26076 ft 379 kts 318°
2026-05-05 21:08 32.01822 -96.13813 25096 ft 380 kts 319°
2026-05-05 21:08 32.04065 -96.15433 24223 ft 383 kts 319°
2026-05-05 21:08 32.06321 -96.17060 23507 ft 379 kts 319°
2026-05-05 21:09 32.08559 -96.18678 22668 ft 375 kts 319°
2026-05-05 21:09 32.10778 -96.20286 21793 ft 373 kts 319°
2026-05-05 21:09 32.12984 -96.21883 20944 ft 372 kts 319°
2026-05-05 21:09 32.15183 -96.23478 20165 ft 370 kts 320°
2026-05-05 21:10 32.17341 -96.25037 19986 ft 365 kts 319°
2026-05-05 21:10 32.19513 -96.26621 19811 ft 367 kts 319°
2026-05-05 21:10 32.21668 -96.28175 19360 ft 357 kts 319°
2026-05-05 21:10 32.23776 -96.29713 18699 ft 355 kts 319°
2026-05-05 21:11 32.25779 -96.31307 18032 ft 350 kts 315°
2026-05-05 21:11 32.27723 -96.33016 17302 ft 347 kts 314°
2026-05-05 21:11 32.29583 -96.34791 16614 ft 340 kts 310°
2026-05-05 21:11 32.31290 -96.36691 15947 ft 336 kts 309°
2026-05-05 21:12 32.32970 -96.38599 15305 ft 333 kts 308°
2026-05-05 21:12 32.34622 -96.40494 14942 ft 329 kts 308°
2026-05-05 21:12 32.36239 -96.42350 14838 ft 319 kts 308°
2026-05-05 21:12 32.37823 -96.44175 14782 ft 317 kts 308°
2026-05-05 21:13 32.39409 -96.46002 14763 ft 319 kts 308°
2026-05-05 21:13 32.41003 -96.47837 14754 ft 321 kts 308°
2026-05-05 21:13 32.42603 -96.49677 14748 ft 320 kts 308°
2026-05-05 21:13 32.44177 -96.51490 14752 ft 320 kts 308°
2026-05-05 21:14 32.45772 -96.53330 14761 ft 321 kts 307°
2026-05-05 21:14 32.47377 -96.55177 14729 ft 322 kts 308°
2026-05-05 21:14 32.48985 -96.57018 14529 ft 321 kts 308°
2026-05-05 21:14 32.50588 -96.58858 14272 ft 321 kts 308°
2026-05-05 21:15 32.52189 -96.60695 14000 ft 320 kts 308°
2026-05-05 21:15 32.53781 -96.62532 13703 ft 318 kts 307°
2026-05-05 21:15 32.55365 -96.64362 13362 ft 319 kts 309°
2026-05-05 21:15 32.56971 -96.66168 13032 ft 317 kts 309°
2026-05-05 21:16 32.58545 -96.67944 12695 ft 316 kts 309°
2026-05-05 21:16 32.60127 -96.69723 12577 ft 306 kts 309°
2026-05-05 21:16 32.61628 -96.71413 12209 ft 291 kts 309°
2026-05-05 21:16 32.63067 -96.73045 11859 ft 287 kts 309°
2026-05-05 21:17 32.64496 -96.74650 11778 ft 280 kts 309°
2026-05-05 21:17 32.65900 -96.76244 11740 ft 278 kts 309°
2026-05-05 21:17 32.67296 -96.77825 11748 ft 277 kts 309°
2026-05-05 21:17 32.68687 -96.79403 11748 ft 277 kts 309°
2026-05-05 21:18 32.70079 -96.80984 11752 ft 277 kts 309°
2026-05-05 21:18 32.71453 -96.82543 11757 ft 276 kts 309°
2026-05-05 21:18 32.72834 -96.84111 11739 ft 274 kts 308°
2026-05-05 21:18 32.74213 -96.85678 11756 ft 275 kts 308°
2026-05-05 21:19 32.75594 -96.87250 11751 ft 276 kts 309°
2026-05-05 21:19 32.76989 -96.88826 11742 ft 278 kts 311°
2026-05-05 21:19 32.78718 -96.89972 11750 ft 293 kts 332°
2026-05-05 21:19 32.80682 -96.90621 11744 ft 299 kts 340°
2026-05-05 21:20 32.82747 -96.91032 11740 ft 300 kts 345°
2026-05-05 21:20 32.84778 -96.91311 11721 ft 288 kts 347°
2026-05-05 21:20 32.86724 -96.91424 11717 ft 281 kts 351°
2026-05-05 21:20 32.88671 -96.91431 11717 ft 281 kts 352°
2026-05-05 21:21 32.90638 -96.91426 11398 ft 283 kts 353°
2026-05-05 21:21 32.92605 -96.91412 11099 ft 282 kts 353°
2026-05-05 21:21 32.94607 -96.91407 10422 ft 295 kts 354°
2026-05-05 21:21 32.96674 -96.91392 10021 ft 297 kts 354°
2026-05-05 21:22 32.98728 -96.91372 9693 ft 294 kts 354°
2026-05-05 21:22 33.00765 -96.91361 9307 ft 292 kts 354°
2026-05-05 21:22 33.02795 -96.91348 8922 ft 291 kts 354°
2026-05-05 21:22 33.04802 -96.91360 8548 ft 285 kts 349°
2026-05-05 21:23 33.06601 -96.92045 8153 ft 270 kts 321°
2026-05-05 21:23 33.07826 -96.93606 7677 ft 250 kts 292°
2026-05-05 21:23 33.08132 -96.95548 7005 ft 236 kts 261°
2026-05-05 21:23 33.07449 -96.97295 6242 ft 238 kts 227°
2026-05-05 21:24 33.06143 -96.98519 5466 ft 239 kts 218°
2026-05-05 21:24 33.04900 -96.99824 4718 ft 236 kts 228°
2026-05-05 21:24 33.03528 -97.00913 3942 ft 242 kts 198°
2026-05-05 21:24 33.01834 -97.00961 3200 ft 251 kts 166°
2026-05-05 21:25 33.00251 -97.00398 2783 ft 234 kts 176°
2026-05-05 21:25 32.98632 -97.00482 2337 ft 220 kts 189°
2026-05-05 21:25 32.97225 -97.00620 2212 ft 194 kts 188°
2026-05-05 21:25 32.95930 -97.00661 1958 ft 180 kts 187°
2026-05-05 21:26 32.94729 -97.00764 1632 ft 164 kts 190°
2026-05-05 21:26 32.93691 -97.00881 1480 ft 140 kts 187°
2026-05-05 21:26 32.92762 -97.00937 1252 ft 127 kts 188°
2026-05-05 21:26 32.91956 -97.00928 1096 ft 105 kts 184°
2026-05-05 21:27 32.91192 -97.00949 965 ft 122 kts 187°
2026-05-05 21:27 32.90392 -97.00958 745 ft 112 kts 184°
2026-05-05 21:27 32.89668 -97.00974 603 ft 99 kts 185°
2026-05-05 21:27 32.89076 -97.00986 596 ft 68 kts 173°
2026-05-05 21:28 32.88769 -97.00992 596 ft 34 kts 184°
2026-05-05 21:28 32.88585 -97.01044 596 ft 23 kts 205°
2026-05-05 21:28 32.88513 -97.01118 596 ft 7 kts 254°
2026-05-05 21:28 32.88527 -97.01158 596 ft 8 kts 337°
2026-05-05 21:29 32.88600 -97.01165 596 ft 17 kts 360°
2026-05-05 21:29 32.88766 -97.01163 596 ft 30 kts 360°
2026-05-05 21:29 32.89009 -97.01164 596 ft 42 kts
2026-05-05 21:29 32.89282 -97.01159 596 ft 29 kts 360°
2026-05-05 21:30 32.89384 -97.01244 596 ft 16 kts 264°
2026-05-05 21:30 32.89386 -97.01400 596 ft 22 kts 271°
2026-05-05 21:30 32.89385 -97.01589 596 ft 27 kts 271°
2026-05-05 21:30 32.89390 -97.01859 596 ft 38 kts 269°
2026-05-05 21:31 32.89387 -97.02210 596 ft 46 kts 270°
2026-05-05 21:31 32.89394 -97.02475 596 ft 0 kts 273°
2026-05-05 21:31 32.89394 -97.02512 596 ft 11 kts 270°
2026-05-05 21:31 32.89392 -97.02681 596 ft 30 kts 268°
2026-05-05 21:32 32.89391 -97.02872 596 ft 3 kts 271°
2026-05-05 21:32 32.89392 -97.02885 596 ft 0 kts 272°
2026-05-05 21:32 32.89394 -97.02926 596 ft 16 kts 272°
2026-05-05 21:32 32.89396 -97.03135 596 ft 14 kts 266°
2026-05-05 21:33 32.89396 -97.03241 596 ft 8 kts 272°
2026-05-05 21:33 32.89397 -97.03310 596 ft 16 kts 270°
2026-05-05 21:33 32.89397 -97.03513 596 ft 30 kts 268°
2026-05-05 21:33 32.89381 -97.03703 596 ft 9 kts 270°
2026-05-05 21:34 32.89381 -97.03719 596 ft 3 kts 272°
2026-05-05 21:34 32.89383 -97.03768 596 ft 6 kts 274°
2026-05-05 21:34 32.89354 -97.03798 596 ft 7 kts 192°
2026-05-05 21:34 32.89349 -97.03800 596 ft 1 kts 192°
2026-05-05 21:35 32.89340 -97.03802 596 ft 0 kts 191°
2026-05-05 21:35 32.89331 -97.03804 596 ft 0 kts 191°